Location: Newark
(47.3000°N, 9.6500°E)
Time: 09:11:10
(UTC+00:00)

N. Korean satellite - Visible Passes

Search period start: 19 October 2019 00:00
Search period end: 29 October 2019 00:00
Orbit: 455 x 508 km, 97.2° (Epoch: 18 October)

Date Brightness Start Highest point End Pass type
(mag) Time Alt. Az. Time Alt. Az. Time Alt. Az.
19 Oct 10.0 17:26:56 10° SW 17:29:02 15° W 17:31:10 10° NW visible
20 Oct 8.8 04:48:34 10° NNE 04:51:50 31° E 04:55:07 10° SSE visible
20 Oct 8.9 17:00:31 10° SSW 17:03:33 29° W 17:06:38 10° NNW visible
21 Oct 9.9 04:23:57 10° NE 04:26:23 17° E 04:28:49 10° SE visible
23 Oct 7.6 05:05:49 10° NNE 05:09:23 52° E 05:12:58 10° S visible
23 Oct 9.7 17:18:37 10° SW 17:21:07 19° W 17:23:39 10° NW visible
24 Oct 9.1 04:40:51 10° NE 04:43:59 26° E 04:47:07 10° SSE visible
24 Oct 8.3 16:52:27 10° SSW 16:55:39 36° W 16:58:55 10° NNW visible
25 Oct 10.2 04:16:27 10° ENE 04:18:29 14° E 04:20:31 10° SE visible
26 Oct 10.2 17:37:18 10° WSW 17:38:43 12° W 17:40:09 10° WNW visible
27 Oct 8.1 04:57:59 10° NNE 05:01:30 42° E 05:05:02 10° S visible
27 Oct 9.3 17:10:22 10° SSW 17:13:11 23° W 17:16:01 10° NW visible
28 Oct 9.5 04:33:08 10° NE 04:36:04 22° E 04:39:00 10° SSE visible
28 Oct 7.8 16:44:23 10° S 16:47:43 46° W 16:51:08 10° NNW visible
